GEFSCGP_850_meantemp_192.txt.gz
Temperature
19 17 17 18 18 19 19 19 19 19 20 19 18 18 18 18 18 18 18 19 19 20 20 20 19 19 18 18 18 17 17 16 16 16 16 16 16 16 16 15 15 15 15 15
17 17 18 19 19 19 19 19 19 19 19 19 18 18 18 18 18 18 18 19 20 20 20 19 19 19 18 18 18 17 17 17 16 16 16 16 16 15 15 15 15 15 15 15
18 18 19 19 19 19 19 18 19 19 19 19 19 18 18 18 18 19 19 19 19 20 20 19 19 19 18 18 18 17 17 17 16 16 16 16 16 15 15 15 15 15 15 15
18 19 19 19 19 19 18 19 19 19 18 17 18 16 17 17 17 17 18 19 19 19 19 19 19 19 18 18 18 18 17 17 16 16 16 16 16 16 15 15 15 15 15 15
18 19 19 19 19 19 19 19 19 18 18 17 17 16 16 16 17 17 18 19 19 19 19 19 19 19 19 18 18 17 17 17 16 16 16 16 16 16 15 15 15 15 15 15
18 19 19 19 19 19 19 18 17 15 15 16 17 16 16 16 17 18 18 19 19 20 19 19 19 19 18 18 18 17 17 17 16 16 16 16 16 15 15 15 15 15 15 15
18 18 19 20 19 18 18 16 16 16 15 15 16 16 16 17 17 17 18 19 20 19 19 19 19 19 18 18 18 17 17 17 16 16 16 16 15 15 15 15 15 15 15 15
17 17 18 19 19 18 17 17 16 16 15 15 16 15 16 18 18 18 19 19 19 19 19 19 19 19 18 18 18 17 17 17 16 16 16 16 15 15 15 15 15 15 15 15
16 16 18 19 19 18 17 16 16 15 15 15 15 15 16 18 18 18 18 19 19 19 19 19 19 19 18 18 18 17 17 17 16 16 16 16 16 16 15 15 15 15 15 15
16 16 17 18 18 18 17 15 14 15 15 15 16 16 16 18 18 17 17 18 18 19 19 19 19 18 18 18 17 17 17 17 16 16 16 16 16 16 15 15 15 15 15 15
16 16 16 17 17 17 17 16 14 13 14 14 15 15 17 17 17 17 17 18 18 18 18 19 19 18 18 18 17 17 17 17 16 16 16 16 16 16 15 15 15 15 15 15
15 14 15 16 17 17 17 16 15 15 14 13 14 15 17 17 17 17 18 18 18 18 18 18 18 18 18 17 17 17 17 17 16 16 16 16 16 16 15 15 15 15 15 15
15 14 14 15 16 16 17 16 15 14 13 13 14 16 17 16 17 18 18 18 18 18 18 18 18 18 18 17 17 17 17 16 16 16 16 16 16 16 16 15 15 15 15 15
15 13 14 15 15 15 16 16 15 14 14 13 14 16 17 17 16 17 18 18 18 18 18 18 18 18 18 17 17 17 17 16 16 16 16 16 16 16 16 15 15 15 15 15
14 14 14 15 16 16 16 16 15 15 14 14 15 15 17 16 16 17 18 18 18 17 18 18 18 18 18 17 17 17 17 16 16 16 16 16 16 16 16 15 15 15 15 15
12 13 14 15 15 15 16 16 16 16 15 15 15 16 16 17 17 17 17 17 17 17 17 18 18 18 18 17 17 17 17 16 16 16 16 16 16 16 16 15 15 15 15 15
11 12 13 13 14 15 15 16 16 16 16 16 16 16 16 16 16 17 17 18 18 18 18 18 18 18 18 18 17 17 17 16 16 16 16 16 16 16 16 15 15 15 15 15
11 11 11 12 14 14 15 16 16 16 16 16 16 16 16 17 18 18 18 18 18 18 18 18 18 18 18 18 17 17 17 16 16 16 16 16 16 16 15 15 15 15 15 15
11 11 10 11 12 13 15 16 16 16 16 16 16 16 17 17 17 17 18 19 19 19 19 18 18 18 18 18 17 17 17 17 16 16 16 16 15 15 15 15 15 15 15 15
10 11 10 11 12 13 15 16 17 16 15 16 16 16 16 16 15 16 19 19 18 18 18 18 18 18 18 18 17 17 17 17 16 16 16 16 15 15 15 15 15 15 15 15
11 10 10 11 12 12 14 16 16 15 15 16 17 17 16 16 16 18 18 18 18 18 18 18 18 18 18 17 17 17 17 17 16 16 16 16 16 15 15 15 15 15 15 15
11 11 10 10 11 12 15 15 15 15 17 17 17 17 17 17 18 18 18 18 18 18 18 18 18 17 17 17 17 17 17 17 17 16 16 16 16 15 15 15 15 15 14 14
11 11 11 11 13 14 15 16 17 17 17 17 17 17 17 17 17 18 17 18 18 18 18 18 18 17 17 17 17 17 17 17 17 16 16 16 16 15 15 15 15 15 14 14
10 11 10 11 12 14 15 16 17 17 17 17 17 17 17 17 17 17 17 17 17 18 18 18 17 17 17 17 17 17 17 17 17 16 16 16 16 15 15 15 15 14 14 14
10 10 10 11 11 13 15 16 16 16 17 17 17 17 17 17 17 17 17 17 17 17 17 17 17 17 17 17 17 17 17 17 16 16 16 16 16 15 15 15 14 14 14 14
9 10 10 11 12 12 14 15 15 16 16 16 16 16 16 17 17 17 17 17 17 17 17 17 17 17 17 17 17 17 16 16 16 16 16 16 16 15 15 15 14 14 14 13

GEFSCGP_850_meantemp_198.txt.gz
Temperature
22 23 23 23 24 24 24 23 23 23 24 23 23 23 24 23 22 22 22 22 22 21 20 20 19 18 18 18 17 17 17 16 16 16 16 16 16 15 15 15 15 15 15 15
23 23 23 23 23 23 23 23 23 23 23 23 23 23 24 23 23 23 23 22 22 21 21 20 19 18 18 18 17 17 17 16 16 16 16 16 15 15 15 15 15 15 15 15
23 23 23 22 22 22 23 23 23 23 23 23 23 23 23 24 23 22 22 22 22 21 21 20 19 19 18 18 17 17 17 17 16 16 16 16 15 15 15 15 15 15 15 15
22 23 22 22 22 23 22 23 23 22 22 23 23 23 23 24 23 23 22 22 22 21 21 20 19 18 18 18 18 17 17 17 16 16 16 16 15 15 15 15 15 15 15 15
22 22 22 22 22 22 23 22 22 22 23 23 23 23 24 24 23 23 23 22 21 21 20 20 19 19 18 18 18 17 17 16 16 16 16 15 15 15 15 15 15 15 15 15
22 22 22 22 22 22 22 22 22 22 22 22 23 23 23 24 23 24 23 22 21 21 20 19 19 18 18 18 17 17 17 16 16 16 16 15 15 15 15 15 15 15 15 15
21 22 22 22 22 22 22 22 22 22 22 22 23 22 23 24 24 23 23 22 21 20 20 19 19 18 18 18 17 17 17 16 16 16 16 16 15 15 15 15 15 15 15 15
21 21 22 22 22 22 22 22 22 22 22 22 22 22 24 24 23 22 22 22 21 20 20 19 19 18 18 17 17 17 17 16 16 16 16 16 15 15 15 15 15 15 15 15
21 21 21 21 22 22 22 22 22 22 22 22 23 23 24 24 23 22 22 21 21 20 19 19 18 18 18 18 17 17 17 16 16 16 16 16 15 15 15 15 15 15 15 15
21 20 21 21 21 21 22 22 22 22 21 21 22 22 23 23 23 23 22 21 20 20 19 19 18 18 17 17 17 17 16 16 16 16 16 16 15 15 15 15 15 15 15 15
20 20 20 21 21 21 21 21 22 22 21 21 21 22 24 23 23 23 22 21 20 20 19 18 18 18 17 17 17 17 16 16 16 16 16 16 16 15 15 15 15 15 15 15
19 20 20 20 21 21 21 21 21 21 21 21 22 22 23 23 23 22 22 21 20 19 18 18 17 17 17 17 17 16 16 16 16 16 16 15 15 15 15 15 15 15 15 15
18 19 19 19 20 20 20 20 21 21 21 21 21 22 23 22 22 21 21 20 19 18 18 17 17 17 17 17 17 16 16 16 16 16 16 15 15 15 15 15 15 15 15 15
18 19 19 19 20 20 19 19 20 20 20 21 21 22 23 23 22 21 20 20 19 18 18 17 17 17 17 16 16 16 16 16 16 16 16 16 15 16 15 15 15 15 15 15
17 18 18 18 19 19 19 19 19 20 20 20 21 21 22 23 22 21 20 20 19 18 18 17 17 17 17 16 16 16 16 16 16 16 15 16 15 15 15 15 15 15 15 15
17 17 17 18 18 18 18 19 19 20 20 20 20 21 22 22 21 21 20 20 19 18 18 17 17 17 17 16 16 16 16 16 16 16 15 15 15 15 15 15 15 15 15 15
16 16 16 17 18 18 18 20 20 20 20 21 20 22 22 21 21 20 20 19 19 18 18 17 17 17 17 16 16 16 16 16 16 16 15 15 15 15 15 15 15 15 15 15
16 16 16 16 17 17 20 20 20 20 20 21 21 21 21 21 20 19 19 19 18 18 17 17 17 16 16 16 16 16 16 16 16 16 15 15 15 15 15 15 15 15 15 15
16 16 16 16 16 18 19 19 19 19 20 21 21 21 20 20 20 20 18 18 18 17 17 17 17 16 16 16 16 16 16 16 16 16 16 15 15 15 15 15 15 15 14 14
15 16 15 15 16 17 19 19 19 20 19 20 20 20 20 19 20 21 18 17 17 17 17 17 16 16 16 16 16 16 16 16 16 16 16 15 15 15 15 15 15 15 15 14
15 14 15 15 16 17 19 18 18 18 20 20 19 19 19 19 20 19 18 17 17 17 16 16 16 16 16 16 16 16 16 16 16 16 15 15 15 15 15 15 15 15 14 14
15 15 15 15 15 17 17 17 18 19 19 18 18 18 18 18 18 18 17 17 16 16 16 16 16 16 16 16 16 16 16 16 16 16 16 15 15 15 15 15 15 15 14 14
15 16 16 16 17 17 17 17 17 17 18 18 18 17 17 17 17 17 17 16 16 16 16 16 16 15 15 15 15 16 16 15 16 16 16 15 15 15 15 15 15 14 14 14
15 14 15 16 16 16 15 15 15 15 16 16 16 16 17 17 17 17 16 16 16 16 15 15 15 15 15 15 15 15 15 15 15 15 15 15 15 15 15 15 14 14 14 14
14 14 14 15 16 15 14 14 14 14 15 15 16 16 16 16 16 16 16 16 15 15 15 15 15 15 15 15 15 15 15 15 15 15 15 15 15 15 15 15 14 14 14 14
13 13 14 14 15 15 15 14 14 14 14 15 15 15 15 15 15 15 15 15 15 15 15 15 15 15 15 15 15 15 15 15 15 15 15 15 15 15 14 14 14 14 14 14

GEFSCGP_850_meantemp_204.txt.gz
Temperature
24 24 24 24 25 25 25 25 25 26 26 26 25 25 25 25 25 24 24 24 24 23 22 22 21 21 20 20 19 19 18 18 18 17 17 17 16 16 16 16 16 16 16 16
24 24 25 26 25 25 25 25 25 25 26 26 25 25 25 25 25 24 24 24 24 23 23 22 21 21 20 20 19 19 19 18 18 17 17 17 16 16 16 16 16 16 16 16
24 25 26 25 25 25 25 25 24 24 25 26 25 24 24 25 25 25 24 24 24 23 23 22 21 20 20 20 19 19 18 18 18 17 17 17 16 16 16 16 16 16 16 16
25 25 25 25 25 25 24 25 25 24 24 23 25 22 23 24 24 24 24 24 24 23 23 22 21 20 20 19 19 19 18 18 18 17 17 17 16 16 16 16 16 16 16 16
24 25 24 24 25 25 24 25 25 24 24 23 24 23 23 24 23 24 24 24 24 23 23 22 21 20 20 19 19 19 18 18 17 17 17 16 16 16 16 16 16 16 15 15
24 25 25 25 25 25 25 24 24 24 23 22 24 24 23 24 24 24 25 24 24 23 23 22 21 21 20 19 19 18 18 18 17 17 17 16 16 16 16 16 16 16 15 15
23 24 25 25 24 24 24 23 22 22 21 22 25 24 23 25 25 25 25 24 24 23 22 22 21 20 20 19 19 18 18 17 17 17 17 16 16 16 16 16 16 16 16 15
22 23 24 24 24 23 24 23 22 21 22 23 25 24 24 26 25 25 25 24 23 23 22 21 21 20 19 19 18 18 18 17 17 17 17 16 16 16 16 16 16 16 16 16
22 22 24 24 24 24 23 23 24 23 23 22 24 24 24 25 25 25 24 24 23 22 22 21 20 20 19 19 18 18 17 17 17 17 16 16 16 16 16 16 16 16 16 16
23 22 23 23 24 24 23 23 23 22 21 21 23 23 23 24 24 24 23 23 22 22 21 21 20 19 19 18 18 18 17 17 17 17 16 16 16 16 16 16 16 16 16 16
22 22 22 22 22 22 23 23 22 22 22 21 21 22 24 24 24 24 23 23 22 22 21 20 20 19 19 18 18 17 17 17 17 17 17 16 16 16 16 16 16 16 16 16
21 21 21 22 23 23 23 22 22 21 21 22 21 22 25 24 24 24 23 23 22 21 21 20 19 19 18 18 17 17 17 17 17 17 16 16 16 16 16 16 16 16 16 16
20 20 20 20 21 22 22 21 21 21 21 21 21 21 24 23 23 23 23 22 22 21 20 20 19 19 18 18 17 17 17 17 17 17 16 16 16 16 16 16 16 16 16 16
19 19 19 19 20 20 20 20 21 20 20 20 21 22 23 23 22 22 22 22 22 21 20 19 19 18 18 18 17 17 17 17 16 16 16 16 16 16 16 16 16 16 16 16
19 19 20 20 21 21 20 20 20 20 20 20 21 22 22 23 22 22 22 22 21 21 20 19 19 18 18 18 17 17 17 17 16 16 16 16 16 16 16 16 16 16 16 16
19 18 19 19 20 20 20 21 21 20 21 21 21 21 23 23 23 22 22 22 21 20 20 19 19 18 18 17 17 17 17 17 16 16 16 16 16 16 16 16 16 15 15 15
18 18 17 18 19 19 19 21 21 21 21 21 21 21 22 22 22 22 22 21 21 20 19 19 18 18 18 17 17 17 17 17 16 16 16 16 16 16 16 16 15 15 15 15
18 18 17 17 18 17 20 22 22 21 21 22 22 22 22 22 21 21 21 21 20 20 19 19 18 18 18 18 17 17 17 16 16 16 16 16 16 16 16 15 15 15 15 15
18 17 17 17 17 18 20 21 21 21 20 22 21 22 22 21 21 20 20 20 20 19 19 18 18 18 18 17 17 17 17 17 16 16 16 16 16 15 15 15 15 15 15 15
18 18 17 16 16 17 19 20 21 21 19 21 21 21 21 21 19 20 20 20 19 19 18 18 18 18 18 17 17 17 17 17 16 16 16 16 15 15 15 15 15 15 15 15
17 16 16 16 16 18 19 20 20 18 18 20 20 20 20 20 20 20 19 19 19 19 18 18 18 17 17 17 17 17 17 16 16 16 16 16 15 15 15 15 15 15 15 14
16 16 16 16 16 17 18 19 18 18 19 19 19 19 19 19 19 19 19 18 18 18 18 18 17 17 17 17 17 16 16 16 16 16 16 15 15 15 15 15 15 15 15 14
17 17 17 17 16 18 18 18 18 18 18 19 19 19 18 18 18 18 18 18 18 18 18 17 17 17 16 16 16 16 16 16 16 16 16 15 15 15 15 15 15 15 14 14
17 18 17 17 17 17 17 17 17 17 17 17 17 17 18 18 18 17 17 17 17 17 17 17 17 16 16 16 16 16 16 16 16 15 15 15 15 15 15 15 15 14 14 14
16 16 16 16 16 16 16 16 16 16 16 16 16 16 17 17 17 17 17 17 17 17 17 16 16 16 16 16 16 16 16 16 15 15 15 15 15 14 14 14 14 14 14 14
16 15 15 15 16 16 15 15 15 15 15 15 16 16 16 16 16 16 16 16 16 16 16 16 16 16 16 16 15 15 15 15 15 15 15 15 15 14 14 14 14 14 14 14

GEFSCGP_850_meantemp_210.txt.gz
Temperature
21 19 18 19 20 20 21 20 20 21 22 21 20 19 20 21 21 20 20 21 21 21 21 20 20 20 19 19 19 18 18 18 17 17 17 17 16 16 16 16 16 16 16 16
18 19 20 21 21 21 21 20 20 21 22 21 20 19 20 20 20 21 21 21 21 21 20 20 20 20 19 19 19 18 18 18 17 17 17 17 16 16 16 16 16 16 16 16
19 20 21 21 21 21 21 20 20 20 21 21 20 19 19 20 20 21 21 21 21 21 20 20 20 19 19 19 19 18 18 18 17 17 17 16 16 16 16 16 16 16 16 16
19 21 21 21 21 21 20 21 21 21 19 18 19 17 18 18 19 19 20 20 20 20 20 20 20 19 19 19 19 18 18 18 17 17 17 17 16 16 16 16 16 16 16 15
19 21 21 20 21 21 20 21 21 20 19 18 18 17 17 18 18 18 19 20 20 20 20 20 20 20 19 19 19 18 18 18 17 17 17 17 16 16 16 16 16 16 16 15
20 21 21 21 21 21 21 20 19 17 17 17 18 17 17 17 18 19 19 20 20 20 20 20 20 20 19 19 19 18 18 17 17 17 17 16 16 16 16 16 16 16 16 15
19 20 21 21 20 20 19 17 16 17 16 16 18 18 17 18 19 19 19 20 20 20 20 20 20 19 19 19 18 18 18 17 17 17 17 16 16 16 16 16 16 16 16 15
17 17 19 20 20 19 19 17 16 17 16 16 18 17 18 19 20 20 20 20 20 20 20 20 20 19 19 19 18 18 18 17 17 17 16 16 16 16 16 16 16 16 16 16
16 17 19 20 20 20 19 17 17 16 17 16 17 17 18 19 19 19 19 20 20 20 20 20 19 19 19 19 18 18 18 17 17 17 17 16 16 16 16 16 16 16 16 15
17 17 18 19 20 19 19 18 15 16 16 16 17 17 17 18 18 18 18 19 19 19 19 19 19 19 19 19 18 18 18 17 17 17 16 16 16 16 16 16 16 16 16 15
16 16 16 18 18 18 18 17 16 14 15 15 16 16 18 18 18 18 18 19 19 19 19 19 19 19 19 19 18 18 17 17 17 17 16 16 16 16 16 16 16 16 16 16
15 14 14 16 17 18 18 17 15 15 15 14 14 16 18 18 18 18 18 19 19 19 19 19 19 19 18 18 18 18 17 17 17 17 16 16 16 16 16 16 16 16 16 16
15 14 14 15 16 17 17 17 16 14 13 13 14 16 18 17 18 18 18 19 19 19 18 18 18 18 18 18 18 18 17 17 17 17 16 16 16 16 16 16 16 16 16 16
16 13 14 14 15 15 16 17 16 15 13 14 14 16 17 17 16 17 18 18 18 18 18 18 18 18 18 18 17 17 17 17 17 16 16 16 16 16 16 16 16 16 16 15
14 14 14 15 16 16 16 16 16 16 15 14 15 15 16 16 17 17 18 18 18 18 18 18 18 17 17 17 17 17 17 16 16 16 16 16 16 16 16 16 15 15 15 15
13 14 14 15 16 16 16 16 16 16 16 15 16 16 16 17 17 17 17 17 17 17 17 18 17 17 17 17 17 17 16 16 16 16 16 16 16 16 16 16 15 15 15 15
12 13 13 13 14 15 15 16 16 16 16 16 15 16 16 16 16 17 17 17 17 17 17 17 17 17 17 17 17 16 16 16 16 16 16 16 16 16 16 15 15 15 15 15
12 12 11 12 13 14 15 16 17 16 16 16 16 16 16 17 17 17 18 17 17 17 17 17 17 17 17 17 17 16 16 16 16 16 16 16 16 16 15 15 15 15 15 15
12 12 11 11 12 13 15 16 16 16 15 15 15 16 16 17 16 16 17 17 17 17 18 17 17 17 17 16 16 16 16 16 16 16 16 16 16 15 15 15 15 15 15 15
12 11 11 11 12 13 14 16 16 16 15 15 15 15 15 15 13 14 17 17 17 17 18 17 17 17 16 16 16 16 16 16 16 15 15 15 15 15 15 15 15 15 15 15
12 11 11 11 11 12 14 15 16 14 14 15 15 15 15 14 15 16 16 16 17 17 17 17 17 16 16 16 16 16 16 16 15 15 15 15 15 15 15 15 15 15 15 15
11 11 11 10 11 12 14 15 14 14 15 15 15 15 15 15 15 16 16 16 16 16 17 17 17 16 16 16 16 15 15 15 15 15 15 15 15 15 15 15 15 15 14 14
11 11 11 11 12 13 15 15 15 15 15 15 15 15 15 15 15 15 15 15 16 16 16 16 16 16 16 16 16 15 15 15 15 15 15 15 15 15 15 15 15 14 14 14
10 11 11 11 12 13 14 15 15 15 15 15 15 15 15 14 14 14 14 15 15 15 16 16 15 15 15 15 15 15 15 15 15 15 15 15 15 14 14 14 14 14 14 14
10 10 10 10 11 13 13 14 14 15 15 15 15 15 15 14 14 14 14 14 15 15 15 15 15 15 15 15 15 15 15 15 15 15 14 14 14 14 14 14 14 14 14 14
10 10 10 10 12 11 13 13 14 14 14 14 14 14 14 14 14 14 14 14 14 15 15 15 15 15 15 15 15 15 15 15 15 14 14 14 14 14 14 14 14 14 14 14

GEFSCGP_850_meantemp_216.txt.gz
Temperature
19 17 17 18 18 19 19 18 18 18 19 19 18 17 17 18 18 18 18 19 19 19 20 19 19 19 18 18 18 18 17 17 17 16 16 16 16 16 16 16 16 15 15 15
17 17 18 18 18 19 18 18 18 18 19 19 17 17 17 17 17 18 18 18 19 19 19 19 19 19 18 18 18 18 17 17 17 17 16 16 16 16 16 16 16 15 15 15
18 18 19 19 19 18 18 18 18 18 18 18 18 17 17 17 18 18 18 18 19 19 19 19 19 18 18 18 18 18 18 17 17 17 16 16 16 16 16 16 16 15 15 15
18 18 19 19 19 18 18 19 19 18 17 16 17 16 16 16 16 16 17 18 18 19 19 19 19 19 18 18 18 18 17 17 17 17 16 16 16 16 16 16 16 15 15 15
18 18 19 19 19 18 18 18 18 18 17 16 16 16 15 15 16 16 16 17 18 18 19 19 19 19 19 18 18 18 17 17 17 17 16 16 16 16 16 16 16 15 15 15
17 18 18 18 19 19 18 17 16 15 15 15 16 15 15 15 16 16 16 17 18 18 18 19 19 19 19 18 18 18 17 17 17 17 16 16 16 16 16 16 15 15 15 15
17 18 18 18 18 18 17 16 15 16 14 15 15 15 15 16 16 16 17 17 18 18 18 18 18 18 18 18 18 18 17 17 17 17 16 16 16 16 16 16 15 15 15 15
16 16 17 17 17 17 16 16 15 16 15 15 15 15 15 16 17 17 18 18 18 18 18 18 18 18 18 18 18 18 17 17 17 17 16 16 16 16 16 16 15 15 15 15
15 16 17 17 17 17 16 15 15 14 15 15 14 15 16 16 16 16 17 17 18 18 18 18 18 18 18 18 18 18 18 17 17 17 16 16 16 16 16 16 15 15 15 15
15 15 16 16 17 16 16 14 13 14 14 14 15 15 15 16 16 15 15 16 17 18 18 18 18 18 18 18 17 17 17 17 17 17 17 16 16 16 16 15 15 15 15 15
14 14 15 15 16 15 15 14 13 12 13 13 14 14 16 15 15 15 15 17 17 17 17 17 17 17 17 17 17 17 17 17 17 17 16 16 16 16 15 15 15 15 15 15
13 12 13 14 15 15 15 14 13 13 13 12 13 14 16 15 15 15 16 16 17 17 17 17 17 17 17 17 17 17 17 17 17 16 16 16 16 16 16 16 16 16 15 15
13 12 13 14 14 14 15 14 13 12 11 11 12 14 15 15 15 16 16 16 16 16 17 17 17 17 17 16 17 17 16 16 16 16 16 16 16 15 15 15 16 15 15 15
13 12 13 14 14 14 14 14 13 12 12 11 12 13 14 15 14 15 16 16 16 16 16 16 16 16 16 16 16 16 16 16 16 16 16 16 15 15 15 15 15 15 15 15
12 12 12 13 14 14 14 14 13 13 12 12 13 13 14 14 14 15 16 16 16 16 16 16 16 16 16 16 16 16 16 16 16 16 16 15 15 15 15 15 15 15 15 15
11 12 12 13 13 13 14 14 14 13 13 13 13 13 14 14 15 15 15 15 16 16 16 16 16 16 16 16 16 16 16 16 16 16 16 15 15 15 15 15 15 15 15 15
10 11 11 11 12 13 13 14 13 13 13 13 13 13 13 13 14 15 15 15 16 16 16 16 16 16 16 16 16 16 16 16 15 15 15 15 15 15 15 15 15 15 15 15
10 10 9 10 12 12 13 14 14 14 13 13 13 13 13 14 15 15 15 15 15 16 16 15 15 16 16 15 15 16 15 15 15 15 15 15 15 15 15 15 15 15 15 15
10 10 9 9 11 11 13 13 13 13 13 13 13 13 14 14 14 14 15 15 15 15 15 15 15 15 15 15 15 15 15 15 15 15 15 15 15 15 15 15 15 15 15 15
9 9 9 9 11 11 13 14 14 14 13 13 13 13 13 13 12 13 15 15 15 15 15 15 15 15 15 15 15 15 15 15 15 15 15 15 15 14 15 15 14 14 14 14
9 9 9 9 10 11 12 13 14 13 13 13 13 13 13 12 13 14 14 14 14 15 15 15 15 15 15 15 15 15 15 15 15 14 14 14 14 14 14 14 14 14 14 14
9 9 8 8 10 11 13 12 12 12 13 13 13 13 13 13 13 14 14 14 14 14 14 14 14 14 14 14 14 14 14 15 14 14 14 14 14 14 14 14 14 14 14 14
9 9 8 9 10 12 12 12 13 13 13 13 13 13 13 13 13 13 13 14 14 14 14 14 14 14 14 14 14 14 14 14 14 14 14 14 14 14 14 14 14 14 14 14
8 9 8 9 9 11 12 13 13 13 13 13 13 13 12 12 13 13 13 13 13 13 13 13 13 14 14 14 14 14 14 14 14 14 14 14 14 14 14 14 14 14 14 13
8 8 8 8 9 10 12 12 12 12 13 12 12 12 12 12 12 12 12 13 13 13 13 13 13 13 14 14 14 14 14 13 13 13 14 14 14 14 13 13 13 13 13 13
7 8 8 9 10 10 11 12 12 12 12 12 12 12 12 12 12 12 12 12 12 12 12 12 13 13 13 13 13 13 13 13 13 13 13 13 13 13 13 13 13 13 13 13

GEFSCGP_850_meantemp_222.txt.gz
Temperature
22 24 23 23 24 24 24 24 23 23 23 23 23 22 23 22 21 21 21 21 20 20 19 19 18 18 18 17 17 17 17 17 16 16 16 16 16 15 15 15 15 15 15 15
23 23 23 23 23 23 23 23 23 23 23 23 22 22 23 22 21 21 21 21 20 20 19 18 18 18 18 17 17 17 17 17 16 16 16 16 15 15 15 15 15 15 15 15
23 23 22 22 22 22 23 23 23 23 22 22 22 22 22 22 21 20 20 20 20 20 19 19 18 18 17 17 17 17 17 17 16 16 16 15 15 15 15 15 15 15 15 15
22 22 22 22 22 23 23 23 22 22 22 23 22 22 23 22 22 21 21 20 20 19 19 19 18 17 17 17 17 17 17 17 16 16 16 16 16 16 16 16 15 15 15 15
22 22 22 22 22 22 22 22 22 22 22 22 22 22 23 22 22 22 21 20 20 19 19 18 18 17 17 17 17 17 16 16 16 16 16 16 15 16 16 15 15 15 15 15
22 21 22 22 22 21 21 22 22 22 22 22 22 22 22 22 22 22 21 20 19 19 18 18 17 17 17 17 17 16 16 16 16 16 16 16 16 16 16 15 15 15 15 15
21 21 21 21 21 21 22 22 22 22 22 22 22 21 22 22 22 21 21 20 19 19 18 18 17 17 17 17 16 16 16 16 16 16 16 16 16 15 15 15 15 15 15 15
21 21 21 21 21 21 21 22 22 21 22 22 21 21 22 22 21 20 20 20 19 18 18 18 17 17 17 16 16 16 16 16 16 16 16 16 15 15 15 15 15 15 15 15
21 21 20 20 20 21 21 22 22 22 22 21 22 22 22 21 21 20 20 19 19 18 18 17 17 17 16 16 16 16 16 16 16 16 16 15 16 15 15 15 15 15 15 15
21 21 20 20 20 20 21 21 21 21 20 21 21 21 22 21 20 20 20 19 18 18 17 17 17 16 16 16 16 16 16 16 15 15 15 15 15 15 15 15 15 15 15 15
20 21 20 20 20 20 20 20 21 21 21 21 21 21 21 21 20 20 20 19 18 18 17 17 16 16 16 16 16 16 16 16 15 15 15 15 15 15 15 15 15 15 15 15
19 20 20 20 19 19 20 20 20 20 20 20 20 21 21 20 20 19 19 18 18 17 17 16 16 16 16 16 16 16 16 15 15 15 15 15 15 15 15 15 15 15 15 15
19 19 20 20 19 19 19 19 19 20 20 20 20 21 21 20 20 19 18 18 17 17 16 16 16 16 16 15 15 15 15 15 15 15 15 15 15 15 15 15 15 15 15 15
18 19 19 19 20 19 19 18 18 19 19 20 20 20 21 20 20 19 18 18 17 17 16 16 16 16 15 15 15 15 15 15 15 15 15 15 15 15 15 15 15 15 15 15
18 18 18 18 18 18 18 18 18 18 19 19 20 20 20 20 19 18 18 17 17 17 16 16 15 15 15 15 15 15 15 15 15 15 15 15 14 14 15 15 15 14 15 15
17 18 18 17 17 17 17 18 18 18 19 19 19 19 20 19 18 18 17 17 16 16 16 16 15 15 15 15 15 15 15 15 14 14 14 14 14 14 14 14 14 14 14 15
17 17 17 18 17 17 17 18 18 18 18 19 19 19 19 18 17 17 16 16 16 16 15 15 15 15 15 15 15 14 14 14 14 14 14 14 14 14 14 14 14 14 14 14
16 16 16 17 17 16 19 19 18 18 18 18 18 18 17 17 16 16 16 15 15 15 15 15 15 15 15 14 14 14 14 14 14 14 14 14 14 14 14 14 14 14 14 14
16 16 16 16 16 17 18 18 18 17 18 17 17 17 16 16 16 16 15 15 15 14 14 14 14 14 14 14 14 14 14 14 14 14 14 14 14 14 14 14 14 14 14 14
14 15 16 16 16 16 18 17 16 17 17 17 16 16 16 16 17 17 15 14 14 14 14 14 14 14 14 14 14 13 13 14 14 14 14 14 14 14 14 14 14 14 14 14
14 14 15 15 16 17 17 16 16 16 17 16 15 15 15 15 16 15 14 13 13 13 13 13 13 13 13 13 13 13 13 13 14 14 14 14 14 14 13 13 13 13 13 13
15 15 15 15 15 16 16 15 16 16 15 15 14 14 14 14 14 13 13 13 13 13 13 13 13 13 13 13 13 13 13 13 13 13 13 13 13 13 13 13 13 13 13 13
14 15 15 15 16 16 14 15 14 14 14 14 14 13 13 13 13 12 12 12 12 12 12 12 12 12 12 12 12 12 13 13 13 13 13 13 13 13 13 13 13 13 13 13
14 13 14 14 15 14 13 13 13 13 13 13 12 12 12 12 12 12 12 12 12 12 12 12 12 12 12 12 12 12 12 12 12 12 13 13 13 13 13 13 13 13 13 13
13 13 13 14 14 13 13 12 12 12 12 12 12 11 11 11 11 11 11 11 11 11 12 12 11 11 11 12 12 12 12 12 12 12 12 12 12 12 12 12 13 13 13 13
12 13 13 13 14 14 13 12 12 11 11 11 11 11 11 11 11 11 11 11 11 11 11 11 11 11 11 11 11 12 12 12 12 12 12 12 12 12 12 12 12 12 13 13

GEFSCGP_850_meantemp_228.txt.gz
Temperature
25 25 24 25 26 26 26 26 25 26 26 25 24 24 24 24 24 24 23 23 23 22 21 21 20 20 19 19 19 18 18 18 17 17 17 17 17 16 16 16 16 16 16 16
25 24 25 26 26 26 26 25 25 26 26 25 24 24 25 24 24 24 23 23 23 22 21 21 20 19 19 19 18 18 18 17 17 17 17 17 16 16 16 16 16 16 16 16
25 25 26 26 25 25 25 25 25 25 25 25 24 23 24 24 24 23 23 23 22 22 21 20 20 19 19 18 18 18 18 17 17 17 17 16 16 16 16 16 16 16 16 16
25 25 25 25 25 25 24 25 25 25 24 23 24 22 23 24 23 23 23 22 22 21 21 20 19 19 18 18 18 18 17 17 17 17 16 16 16 16 16 16 16 16 16 16
24 25 25 24 25 25 25 25 25 25 24 23 24 23 23 24 23 23 23 22 22 21 21 20 19 19 18 18 18 18 17 17 17 17 16 16 16 16 16 16 16 16 16 16
24 25 25 24 25 25 25 24 24 24 24 22 24 24 23 23 23 23 23 22 21 21 20 20 19 18 18 18 18 17 17 17 17 16 16 16 16 16 16 16 16 16 16 16
23 24 25 24 24 24 24 23 22 22 22 22 25 24 23 23 24 23 23 22 21 21 20 19 19 18 18 18 17 17 17 17 16 16 16 16 16 16 16 16 16 16 16 16
23 23 24 24 23 23 24 24 22 22 22 23 24 23 23 24 23 23 22 22 21 20 20 19 19 18 18 17 17 17 17 16 16 16 16 16 16 16 16 16 16 16 16 16
23 23 24 24 24 24 23 23 24 23 23 23 24 23 23 23 23 23 22 22 21 20 20 19 18 18 18 17 17 17 16 16 16 16 16 16 16 16 16 16 16 16 16 16
23 22 23 24 23 23 23 23 23 22 22 22 23 23 22 22 22 22 22 21 21 20 19 19 18 18 17 17 17 17 16 16 16 16 16 16 16 16 16 16 16 16 16 16
22 22 22 23 22 22 23 23 23 23 22 22 21 22 23 22 22 22 21 21 20 20 19 19 18 18 17 17 17 16 16 16 16 16 16 16 16 16 16 16 16 16 16 16
21 21 21 22 23 23 23 22 22 21 21 22 21 21 23 23 22 22 21 21 20 20 19 19 18 18 17 17 17 16 16 16 16 16 16 15 15 16 16 16 16 16 15 16
19 20 20 21 21 22 22 22 22 22 21 21 21 21 22 22 21 21 21 20 20 19 19 18 18 18 17 17 16 16 16 16 16 15 15 15 15 15 15 15 15 15 15 15
18 19 20 20 20 21 21 21 22 21 20 21 21 21 21 21 21 20 20 20 20 19 19 18 18 17 17 17 16 16 16 16 15 15 15 15 15 15 15 15 15 15 15 15
19 19 20 20 21 21 21 21 21 21 21 20 21 21 21 21 20 20 20 19 19 19 18 18 17 17 17 17 16 16 16 16 15 15 15 15 15 15 15 15 15 15 15 15
19 19 19 20 20 20 20 21 21 21 21 21 20 20 21 21 20 20 19 19 18 18 18 17 17 17 16 16 16 16 16 16 15 15 15 15 15 15 15 15 15 15 15 15
18 18 18 19 20 20 19 20 21 20 21 20 20 20 20 20 20 19 19 18 18 17 17 17 16 16 16 16 16 16 16 15 15 15 15 15 15 14 14 14 15 15 15 15
18 18 17 18 18 18 19 21 21 20 20 20 20 20 19 19 19 18 18 17 17 17 16 16 16 16 16 16 15 15 15 15 15 15 15 14 14 14 14 14 14 14 14 14
18 17 17 17 17 18 19 20 20 19 19 20 19 19 19 18 18 18 17 16 16 16 15 15 15 15 15 15 15 15 15 15 15 15 14 14 14 14 14 14 14 14 14 14
17 17 16 17 16 17 18 19 20 19 18 19 19 18 18 18 17 16 16 16 15 15 15 15 15 15 15 15 15 14 14 14 14 14 14 14 14 14 14 14 14 14 14 14
16 16 16 16 16 17 18 19 19 17 17 18 18 17 17 17 16 16 15 15 14 14 14 14 14 14 14 14 14 14 14 14 14 14 14 14 14 13 13 13 13 13 13 13
16 16 16 16 16 16 18 18 17 17 17 17 17 17 16 16 15 15 14 14 14 14 14 14 14 14 14 14 14 13 13 14 14 14 14 13 13 13 13 13 13 13 13 13
16 16 16 16 16 17 17 17 17 17 17 16 16 16 15 15 14 14 14 13 13 13 13 13 13 13 13 13 13 13 13 13 13 13 13 13 13 13 13 13 13 13 13 13
16 17 16 16 16 16 16 16 16 16 16 15 15 14 14 14 14 13 13 13 12 12 12 12 12 12 12 12 12 12 13 13 13 13 13 12 12 12 12 12 12 12 12 12
15 16 16 15 16 16 15 15 15 15 15 14 14 14 13 13 13 13 12 12 12 12 12 12 11 12 12 12 12 12 12 12 12 12 12 12 12 12 12 12 12 12 12 12
15 14 14 14 15 15 15 14 14 14 14 13 13 13 12 12 12 12 12 11 11 11 11 11 11 11 11 11 11 11 11 11 11 11 11 11 11 11 12 12 12 12 12 12

GEFSCGP_850_meantemp_234.txt.gz
Temperature
22 19 19 19 20 21 21 21 20 21 21 21 19 19 19 20 20 19 19 19 19 19 19 19 19 19 18 18 18 17 17 17 17 17 16 16 16 16 16 16 16 16 16 16
19 19 20 21 21 21 21 20 20 21 21 21 19 19 19 19 19 20 19 19 19 19 19 19 19 19 18 18 18 18 17 17 17 16 16 16 16 16 16 16 16 16 16 16
19 20 22 22 21 21 21 20 20 20 21 20 20 19 18 19 19 19 19 19 19 19 19 19 19 18 18 18 18 17 17 17 17 16 16 16 16 16 16 15 15 15 16 16
19 21 22 21 21 21 20 21 21 21 19 18 19 17 17 18 18 18 18 18 19 19 19 19 18 18 18 18 17 17 17 17 17 16 16 16 16 16 16 16 15 15 15 15
20 21 21 21 21 22 21 22 21 21 19 18 18 17 17 17 17 17 17 18 18 19 19 18 18 18 18 18 17 17 17 17 16 16 16 16 16 16 16 15 15 15 15 15
20 21 21 21 22 22 21 20 19 17 17 17 18 17 17 16 17 17 18 18 18 18 18 18 18 18 18 17 17 17 17 17 16 16 16 16 16 16 15 15 15 15 15 15
19 20 21 21 21 21 20 17 17 17 16 16 18 17 17 17 18 18 18 18 18 18 18 18 18 17 17 17 17 17 17 17 16 16 16 16 16 15 15 15 15 15 15 15
18 18 20 20 20 19 19 17 16 17 17 17 17 17 17 18 19 19 18 18 18 18 18 18 18 17 17 17 17 17 17 16 16 16 16 16 16 15 15 15 15 15 15 15
17 18 20 21 21 20 19 17 17 16 17 17 16 17 18 18 17 17 17 17 18 18 18 18 17 17 17 17 17 17 16 16 16 16 16 16 15 15 15 15 15 15 15 15
17 17 19 20 20 20 20 18 16 16 17 16 17 17 16 17 17 17 16 17 17 18 18 17 17 17 17 17 16 16 16 16 16 16 16 15 15 15 15 15 15 15 15 15
16 16 17 18 18 18 19 18 16 15 15 15 16 16 17 17 16 16 16 17 17 17 17 17 17 17 17 17 16 16 16 16 16 16 16 15 15 15 15 15 15 15 15 15
15 14 15 16 18 18 18 17 16 15 15 15 14 15 17 17 17 17 17 17 17 17 17 17 17 17 17 16 16 16 16 16 16 16 15 15 15 15 15 15 15 15 15 15
15 14 14 15 16 17 17 18 17 15 14 14 14 15 17 16 16 17 17 17 17 17 17 17 17 16 16 16 16 16 16 15 15 15 15 15 15 15 15 15 15 15 15 15
15 13 14 15 15 15 16 17 17 15 14 14 14 15 16 15 15 16 17 17 17 17 17 16 16 16 16 16 16 15 15 15 15 15 15 15 15 15 15 15 15 15 14 14
13 13 14 14 15 16 16 16 17 16 15 14 15 15 15 15 15 16 16 16 16 16 16 16 16 16 16 15 15 15 15 15 15 15 15 15 15 14 14 14 14 14 14 14
12 13 14 14 15 16 15 16 16 16 16 15 15 15 15 15 15 15 15 15 15 15 15 15 15 15 15 15 15 15 15 15 14 14 14 14 14 14 14 14 14 14 14 14
11 12 12 12 14 15 14 15 15 15 15 15 14 15 14 14 14 15 15 15 14 14 14 14 14 14 14 15 15 14 14 14 14 14 14 14 14 14 14 14 14 14 14 14
11 11 10 11 13 13 14 15 15 15 15 15 15 14 14 15 15 15 15 14 14 14 14 14 14 14 14 14 14 14 14 14 14 14 14 14 13 13 13 13 13 13 13 13
11 11 10 10 12 12 14 15 15 15 14 14 14 14 14 14 14 14 14 14 14 14 14 14 14 14 14 14 14 14 14 13 13 13 13 13 13 13 13 13 13 13 13 13
11 10 10 10 12 12 13 15 16 15 13 14 14 14 14 14 11 12 14 14 14 14 13 13 13 13 13 13 13 13 13 13 13 13 13 13 13 13 13 13 13 13 13 13
11 10 10 10 11 11 13 14 15 13 13 14 14 14 14 13 12 13 13 13 13 13 13 13 13 13 12 12 12 12 12 12 12 12 12 13 13 13 13 13 13 13 13 13
11 10 10 9 10 11 13 13 13 12 14 14 14 14 13 13 13 13 13 13 13 13 12 12 12 12 12 12 12 12 12 12 12 12 12 12 12 12 12 12 12 12 12 12
10 10 10 10 11 12 13 13 14 14 13 13 13 13 13 13 13 13 12 12 12 12 12 12 12 11 11 11 11 11 11 11 11 11 12 12 12 12 12 12 12 12 12 11
10 11 10 10 11 12 13 13 13 13 13 13 13 13 13 12 12 12 12 12 12 12 11 11 11 11 11 11 11 11 11 11 11 11 11 11 11 11 11 11 11 11 11 11
9 10 10 10 10 11 12 13 13 13 13 12 12 12 12 12 12 12 11 11 11 11 11 11 10 10 10 10 10 10 10 10 10 10 10 10 11 11 11 11 11 11 11 11
9 9 9 9 11 10 11 12 12 12 12 12 12 12 12 12 11 11 11 11 10 10 10 10 10 10 10 10 10 10 10 10 10 10 10 10 10 10 10 10 10 10 10 10

GEFSCGP_850_meantemp_240.txt.gz
Temperature
20 18 17 18 18 19 19 19 18 18 19 18 17 17 17 17 17 17 17 18 18 18 18 18 18 18 17 17 17 17 17 16 16 16 16 16 15 15 15 15 15 15 15 15
17 18 19 19 19 19 19 18 18 18 19 18 17 17 17 17 16 17 17 17 18 18 18 18 18 18 17 17 17 17 17 16 16 16 16 15 15 15 15 15 15 15 15 15
18 18 19 19 19 19 18 18 18 18 18 18 18 17 16 16 17 17 17 17 18 18 18 18 18 17 17 17 17 17 16 16 16 16 16 15 15 15 15 15 15 15 15 15
18 18 19 19 19 19 18 19 19 19 17 16 17 16 16 16 15 15 16 16 17 17 17 18 18 17 17 17 17 17 16 16 16 16 15 15 15 15 15 15 15 15 15 15
18 19 19 19 19 19 19 19 18 18 17 16 16 16 15 15 15 15 15 16 16 17 17 17 17 17 17 17 16 16 16 16 16 16 15 15 15 15 15 15 15 15 15 14
18 19 19 19 20 19 19 17 16 15 15 16 16 16 15 14 15 15 15 16 16 17 17 17 17 17 17 17 16 16 16 16 16 15 15 15 15 15 15 15 15 15 14 14
18 18 18 19 19 18 17 16 15 16 15 15 15 15 15 15 15 15 15 16 16 16 17 17 17 17 17 16 16 16 16 16 15 15 15 15 15 15 15 15 14 14 14 14
17 17 18 18 18 18 17 16 15 16 15 15 15 15 15 15 16 16 16 16 16 16 16 16 16 16 16 16 16 16 16 15 15 15 15 15 15 15 15 14 14 14 14 14
15 16 17 18 18 18 17 15 15 14 15 15 14 15 15 16 15 15 15 16 16 16 16 16 16 16 16 16 16 16 16 15 15 15 15 15 15 14 14 14 14 14 14 14
15 16 16 16 18 17 16 15 13 14 15 15 15 14 14 15 15 15 14 15 15 16 16 16 16 16 16 16 16 15 15 15 15 15 15 14 14 14 14 14 14 14 14 14
15 15 15 16 16 16 16 15 14 13 13 14 14 14 15 14 14 14 14 15 15 16 16 16 16 16 16 16 15 15 15 15 15 15 15 15 14 14 14 14 14 14 14 14
13 12 13 15 15 15 16 15 13 14 14 12 13 14 15 14 14 14 14 15 15 16 16 16 16 15 15 15 15 15 15 15 15 15 14 14 14 14 14 14 14 14 14 14
13 13 13 14 14 15 15 15 13 12 12 11 13 14 14 14 14 14 14 15 15 15 15 15 15 15 15 15 15 15 15 15 15 14 14 14 14 14 14 14 14 14 14 14
13 12 13 14 14 14 14 14 14 13 12 12 12 13 14 13 13 14 14 14 15 15 15 15 15 15 15 15 14 14 14 14 14 14 14 14 14 14 14 14 14 14 14 14
12 12 12 12 13 13 13 13 13 13 12 12 13 13 13 13 13 14 14 14 14 14 14 15 15 14 14 14 14 14 14 14 14 14 14 14 14 14 14 14 13 13 13 13
10 12 12 12 13 12 12 13 13 13 13 12 12 12 13 13 14 14 14 14 14 14 14 14 14 14 14 14 14 14 14 14 14 14 14 13 13 13 13 13 13 13 13 13
10 11 11 11 11 12 12 12 13 13 13 13 12 13 12 12 12 13 13 13 13 13 13 13 13 13 13 13 13 13 13 13 13 13 13 13 13 13 13 13 13 13 13 13
9 9 9 10 11 12 12 13 13 13 13 12 13 12 12 12 13 13 13 13 13 13 13 13 13 13 13 13 13 13 13 12 13 13 13 13 13 13 12 12 12 12 12 12
9 9 9 9 10 11 12 13 12 12 12 12 12 12 12 12 12 12 13 13 13 13 13 13 13 12 12 12 12 12 12 12 12 12 12 12 12 12 12 12 12 12 12 12
9 9 9 9 11 11 12 13 13 12 12 12 12 11 11 11 10 11 12 12 12 12 12 12 12 12 12 12 12 12 11 11 11 12 12 12 12 12 12 12 12 12 12 12
9 8 8 9 9 10 11 12 13 12 12 12 12 12 11 11 11 12 12 12 12 12 12 12 12 11 11 11 11 11 11 11 11 11 11 11 11 11 11 11 11 11 11 11
9 8 8 8 9 10 12 11 11 11 12 12 12 12 12 12 12 11 11 11 11 11 11 11 11 11 11 11 10 10 11 11 11 11 11 11 11 11 11 11 11 11 11 11
8 8 8 8 10 11 11 12 12 13 12 12 12 12 12 11 11 11 11 11 11 11 11 10 10 10 10 10 10 10 10 10 10 10 10 10 10 10 10 10 10 10 10 10
8 8 8 8 9 10 11 12 12 12 12 12 12 11 11 11 11 10 10 10 10 10 10 10 10 10 10 10 10 10 9 9 9 9 10 10 10 10 10 10 10 10 10 10
8 7 7 8 9 10 11 12 12 12 11 11 11 11 11 10 10 10 10 10 10 10 10 9 9 9 9 9 9 9 9 9 9 9 9 9 9 9 9 9 9 9 9 9
7 8 8 9 10 10 11 12 12 11 11 11 11 11 10 10 10 10 9 9 9 9 9 9 9 9 9 9 9 9 9 9 9 9 8 8 8 8 8 8 9 9 9 9

GEFSCGP_850_meantemp_246.txt.gz
Temperature
23 24 24 24 24 24 24 24 24 24 24 23 23 23 23 22 21 21 21 21 20 19 19 18 18 17 17 17 17 17 16 16 16 16 15 15 15 15 15 15 15 15 15 15
24 24 24 23 23 23 23 23 23 23 23 23 23 22 23 22 21 21 21 21 20 19 19 18 17 17 17 17 17 17 16 16 16 16 15 15 15 15 15 15 15 15 15 15
24 24 23 23 23 23 23 23 23 23 22 23 22 22 22 22 21 20 20 20 20 19 19 18 17 17 17 17 17 16 16 16 16 15 15 15 15 15 15 15 14 14 14 14
23 23 22 23 23 23 23 23 23 22 22 23 22 22 23 22 22 21 20 19 19 18 18 18 17 17 17 17 16 16 16 16 15 15 15 15 15 15 15 14 14 14 14 14
23 22 22 22 23 23 23 22 22 22 23 23 23 22 23 22 21 21 20 19 18 18 17 17 17 17 17 16 16 16 16 15 15 15 15 15 15 14 14 14 14 14 14 14
22 22 22 22 22 22 22 22 22 22 23 22 23 22 23 22 21 21 20 19 18 17 17 17 16 16 16 16 16 16 16 15 15 15 15 15 15 14 14 14 14 14 14 14
22 22 22 22 22 22 22 22 22 22 22 22 22 22 22 21 21 20 20 19 18 17 17 16 16 16 16 16 16 15 15 15 15 15 15 15 14 14 14 14 14 14 14 14
21 22 22 21 22 22 22 23 22 21 22 22 22 22 22 21 20 19 18 18 17 17 16 16 16 16 16 15 15 15 15 15 15 15 15 14 14 14 14 14 14 14 14 14
22 21 21 20 21 22 22 22 22 22 22 22 22 22 21 20 20 19 18 17 17 16 16 16 16 16 15 15 15 15 15 15 14 14 14 14 14 14 14 14 14 14 14 14
21 21 21 20 20 20 21 22 22 22 21 21 22 21 21 20 19 19 18 17 16 16 15 15 15 15 15 15 15 15 15 14 14 14 14 14 14 14 14 14 14 14 13 13
20 21 20 20 20 21 20 21 21 21 21 21 21 21 21 20 19 19 18 17 16 16 15 15 15 15 15 15 14 14 14 14 14 14 14 14 14 14 14 14 14 13 13 13
19 20 20 20 20 19 20 20 21 20 20 20 21 21 20 19 19 18 17 16 15 15 15 15 15 15 15 15 14 14 14 14 14 14 14 14 14 13 13 13 13 13 13 13
19 20 19 20 19 19 19 19 19 20 20 20 20 20 19 19 18 17 17 16 15 15 14 14 14 14 14 14 14 14 14 14 14 14 14 14 13 13 13 13 13 13 13 13
17 19 19 19 20 19 19 18 18 19 19 20 20 20 19 18 18 17 16 16 15 15 14 14 14 14 14 14 14 14 14 13 13 14 13 13 13 13 13 13 13 13 13 13
18 19 19 18 18 18 18 18 18 18 19 19 19 19 19 18 17 17 16 15 15 14 14 14 14 13 13 13 13 13 13 13 13 13 13 13 13 13 13 13 13 13 13 13
17 18 18 17 17 17 17 17 17 18 18 18 18 18 18 17 17 16 16 15 14 14 14 13 13 13 13 13 13 13 13 13 12 12 12 12 12 12 12 12 13 13 12 12
17 17 17 18 17 17 17 18 17 17 18 18 18 18 17 17 16 16 15 14 14 14 13 13 13 13 12 12 12 12 12 12 12 12 12 12 12 12 12 12 12 12 12 12
17 17 17 17 17 16 18 17 17 17 17 17 17 17 16 16 15 14 14 13 13 13 13 12 12 12 12 12 12 12 12 12 12 12 12 12 12 12 12 12 12 12 12 12
16 16 16 16 16 17 17 16 16 16 17 17 16 16 15 14 14 14 13 13 12 12 12 12 12 12 12 11 11 11 11 11 11 11 11 11 11 11 11 11 11 11 11 11
14 15 16 16 15 16 17 16 15 16 16 16 15 15 14 14 15 15 13 12 12 12 12 11 11 11 11 11 11 11 11 11 11 11 11 11 11 11 11 11 11 11 11 11
14 14 15 15 15 16 16 15 15 16 16 15 14 14 13 14 14 13 12 12 11 11 11 11 11 10 10 10 10 10 10 10 10 10 10 10 10 10 10 10 10 10 10 10
15 15 15 15 15 16 15 15 15 16 15 14 14 13 13 12 12 11 11 11 11 11 10 10 10 10 10 10 10 10 10 10 10 10 10 10 10 10 10 10 10 10 10 10
14 15 15 15 15 15 14 14 14 13 14 13 13 12 12 11 11 11 10 10 10 10 10 10 10 10 10 9 9 9 9 9 9 9 9 9 9 9 9 9 9 9 9 9
14 13 13 14 15 14 13 12 12 12 12 12 12 11 11 11 11 10 10 10 10 10 10 9 9 9 9 9 9 9 9 9 9 8 9 9 9 9 9 9 9 9 9 9
14 13 13 13 14 13 12 12 12 12 12 11 11 11 10 10 10 10 10 10 9 9 9 9 9 9 8 8 9 9 9 8 8 8 8 8 8 8 8 8 8 8 8 8
13 13 13 14 14 13 13 12 11 11 11 11 10 10 10 10 10 9 9 9 9 9 9 9 8 8 8 8 8 8 8 8 8 8 8 8 8 8 8 8 8 8 8 8

GEFSCGP_850_meantemp_252.txt.gz
Temperature
26 25 25 25 26 26 26 26 25 25 26 26 25 24 24 24 24 23 23 23 22 22 21 20 20 19 19 19 18 18 17 17 17 16 16 16 16 16 15 15 15 15 15 15
26 25 26 27 27 26 26 25 25 25 26 25 25 24 24 24 24 23 23 23 22 21 21 20 19 19 19 18 18 18 17 17 17 16 16 16 15 15 15 15 15 15 15 15
25 26 27 26 26 25 25 25 25 25 25 25 24 23 23 24 24 23 23 23 22 21 21 20 19 19 18 18 18 18 17 17 16 16 16 16 15 15 15 15 15 15 15 15
26 26 26 26 25 25 25 26 25 25 24 23 24 22 23 23 23 23 22 22 22 21 20 20 19 19 18 18 18 17 17 17 16 16 16 16 15 15 15 15 15 15 15 14
25 26 25 25 25 25 25 25 25 24 23 23 24 23 23 23 22 22 22 22 21 21 20 19 19 18 18 18 17 17 17 17 16 16 16 15 15 15 15 15 15 14 14 14
25 26 26 25 25 25 25 25 24 24 23 22 24 24 22 22 22 22 22 21 21 20 19 19 18 18 17 17 17 17 17 16 16 16 15 15 15 15 15 15 14 14 14 14
24 25 25 25 24 25 25 23 22 22 21 22 25 24 22 23 23 23 22 21 20 20 19 18 18 17 17 17 16 16 16 16 16 16 15 15 15 15 15 14 14 14 14 14
24 24 24 24 24 23 24 23 22 21 22 23 24 23 22 23 23 22 21 21 20 19 19 18 17 17 17 16 16 16 16 16 15 15 15 15 15 15 15 15 14 14 14 14
23 23 25 24 24 24 23 23 24 23 23 22 23 22 22 22 22 21 20 20 19 19 18 17 17 17 16 16 16 16 15 15 15 15 15 15 15 15 15 14 14 14 14 14
23 23 24 24 24 24 24 23 23 22 21 21 22 22 21 20 20 20 20 19 18 18 18 17 17 16 16 16 16 15 15 15 15 15 15 14 14 14 14 14 14 14 14 14
23 22 23 23 23 23 23 23 23 22 22 21 21 21 22 21 20 20 19 18 18 17 17 17 16 16 16 16 15 15 15 15 15 15 14 14 14 14 14 14 14 14 14 14
23 22 22 23 23 23 23 23 22 21 21 22 21 20 22 21 20 20 19 18 17 17 16 16 16 16 16 15 15 15 15 15 14 14 14 14 14 14 14 14 14 14 14 14
21 21 21 21 22 22 22 22 22 22 21 21 20 20 21 21 20 19 18 18 17 16 16 16 16 15 15 15 15 15 15 14 14 14 14 14 14 14 13 13 13 13 13 13
19 20 20 20 21 21 21 22 22 21 20 20 20 20 20 20 19 18 18 17 17 16 16 15 15 15 15 14 14 14 14 14 14 14 14 14 14 13 13 13 13 13 13 13
20 20 21 21 21 21 21 21 21 21 21 20 20 20 20 19 19 18 18 17 16 16 15 15 14 14 14 14 14 14 13 13 13 13 13 13 13 13 13 13 13 13 13 13
20 20 20 20 21 21 20 21 21 21 21 20 20 19 20 20 19 18 17 17 16 16 15 15 14 14 14 14 13 13 13 13 13 13 13 13 13 13 13 13 13 13 12 12
20 19 19 19 20 20 19 20 20 20 21 20 19 19 19 19 18 18 17 16 16 15 15 14 14 14 13 13 13 13 12 12 12 12 12 12 12 12 12 12 12 12 12 12
19 19 19 18 19 18 19 21 20 20 20 20 19 19 19 18 17 17 16 16 15 15 14 14 13 13 13 13 13 12 12 12 12 12 12 12 12 12 12 12 12 12 12 12
19 19 18 18 17 18 19 19 19 19 19 19 19 18 18 17 16 16 16 15 14 14 13 13 13 13 13 12 12 12 12 12 12 12 11 11 11 11 11 11 11 11 11 11
19 19 18 17 17 17 18 19 19 18 17 18 18 18 17 16 15 15 15 14 14 13 13 12 12 12 12 12 12 12 11 11 11 11 11 11 11 11 11 11 11 11 11 10
17 17 17 16 17 18 18 18 18 17 16 17 17 16 16 16 15 14 14 13 13 13 12 12 12 12 11 11 11 11 11 11 11 11 11 11 10 10 10 10 10 10 10 10
17 17 16 16 16 16 17 17 17 16 16 16 16 15 15 14 14 14 13 13 12 12 12 11 11 11 11 11 11 11 11 10 10 10 10 10 10 10 10 10 10 10 10 10
17 17 17 17 16 17 17 16 16 16 15 15 15 14 14 14 13 13 12 12 12 11 11 11 11 10 10 10 10 10 10 10 10 10 10 10 9 9 9 9 9 9 9 9
17 17 17 16 16 16 16 16 15 15 15 14 14 14 13 13 12 12 12 12 11 11 10 10 10 10 10 10 10 10 10 9 9 9 9 9 9 9 9 9 9 9 9 9
16 16 16 16 16 16 15 15 14 14 14 13 13 13 13 12 12 11 11 11 11 10 10 10 10 10 9 9 9 9 9 9 9 9 9 9 8 8 8 8 8 8 8 8
16 16 15 15 16 15 15 14 14 13 13 13 13 12 12 12 11 11 11 10 10 10 10 9 9 9 9 9 9 9 9 9 8 8 8 8 8 8 8 8 8 8 8 8